Baker, MT

5:08 AM MDT on September 30, 2016 (GMT -0600)
Baker Municipal

Weather History for KBHK - April, 2014

Change the Weather History Date:

Saturday, April 12, 2014

  Actual Average Record
Temperature  
Mean Temperature 40 °F -  
Max Temperature 53 °F 45 °F 84 °F (2003)
Min Temperature 27 °F 34 °F 19 °F (2004)
Degree Days  
Heating Degree Days 26    
Moisture  
Dew Point 29 °F    
Average Humidity 59    
Maximum Humidity 73    
Minimum Humidity 44    
Precipitation  
Precipitation 0.00 in - - ()
Sea Level Pressure  
Sea Level Pressure 29.89 in    
Wind  
Wind Speed 14 mph (NNW)    
Max Wind Speed 23 mph    
Max Gust Speed 31 mph    
Visibility 10 miles    
Events      
Averages and records for this station are not official NWS values.
T = Trace of Precipitation, MM = Missing Value Source: NWS Daily Summary

Daily Weather History Graph

Daily Weather History Graph

Search for Another Location

Airport or City:

Trip Planner

Search our weather history database for the weather conditions in past years. The results will help you decide how hot, cold, wet, or windy it might be!

Date:

Astronomy

Apr. 12, 2014 Rise Set
Actual Time 6:15 AM MDT 7:40 PM MDT
Civil Twilight 5:44 AM MDT 8:12 PM MDT
Nautical Twilight 5:06 AM MDT 8:49 PM MDT
Astronomical Twilight 4:26 AM MDT 9:30 PM MDT
Moon 5:14 PM MDT (4/12) 4:52 AM MDT (4/12)
Length of Visible Light 14h 27m
Length of Day
13h 25m
Waxing Gibbous, 93% of the Moon is Illuminated
Apr 12
Waxing Gibbous
Apr 15
Full
Apr 22
Last Quarter
Apr 29
New
May 6
First Quarter

Hourly Weather History & Observations

Time (MDT) Temp. Windchill Dew Point Humidity Pressure Visibility Wind Dir Wind Speed Gust Speed Precip Events Conditions
12:51 AM 42.1 °F 39.2 °F 28.0 °F 58% 29.73 in 10.0 mi ESE 4.6 mph - N/A   Scattered Clouds
1:51 AM 45.0 °F 41.2 °F 30.0 °F 56% 29.71 in 10.0 mi SSE 6.9 mph - N/A   Overcast
2:51 AM 46.0 °F 42.5 °F 28.9 °F 51% 29.70 in 10.0 mi Variable 6.9 mph - N/A   Overcast
3:51 AM 46.0 °F 41.9 °F 30.9 °F 56% 29.71 in 10.0 mi West 8.1 mph - N/A   Partly Cloudy
4:51 AM 44.1 °F 37.4 °F 30.9 °F 60% 29.73 in 10.0 mi WNW 13.8 mph - N/A   Mostly Cloudy
5:51 AM 44.1 °F 38.6 °F 30.9 °F 60% 29.75 in 10.0 mi WNW 10.4 mph - N/A   Clear
6:51 AM 41.0 °F 33.1 °F 32.0 °F 70% 29.78 in 10.0 mi WNW 15.0 mph - N/A   Clear
7:51 AM 42.1 °F 36.1 °F 34.0 °F 73% 29.82 in 10.0 mi WNW 10.4 mph - N/A   Scattered Clouds
8:51 AM 44.1 °F 36.8 °F 35.1 °F 71% 29.82 in 10.0 mi NW 16.1 mph - N/A   Mostly Cloudy
9:51 AM 48.0 °F - 36.0 °F 63% 29.84 in 10.0 mi NW 20.7 mph 27.6 mph N/A   Partly Cloudy
10:51 AM 48.9 °F - 35.1 °F 59% 29.86 in 10.0 mi NNW 17.3 mph 26.5 mph N/A   Scattered Clouds
10:57 AM 48.9 °F - 35.1 °F 59% 29.85 in 10.0 mi NNW 21.9 mph 28.8 mph N/A   Mostly Cloudy
11:18 AM 50.0 °F - 35.1 °F 57% 29.85 in 10.0 mi NNW 19.6 mph 26.5 mph N/A   Scattered Clouds
11:51 AM 51.1 °F - 33.1 °F 50% 29.88 in 10.0 mi NW 20.7 mph - N/A   Mostly Cloudy
12:51 PM 50.0 °F - 30.9 °F 48% 29.88 in 10.0 mi North 21.9 mph 25.3 mph N/A   Mostly Cloudy
1:51 PM 50.0 °F - 28.9 °F 44% 29.88 in 10.0 mi North 19.6 mph 25.3 mph N/A   Partly Cloudy
2:51 PM 48.9 °F - 30.0 °F 48% 29.91 in 10.0 mi NNW 19.6 mph - N/A   Mostly Cloudy
3:51 PM 46.0 °F 38.3 °F 28.9 °F 51% 29.93 in 10.0 mi NW 20.7 mph 26.5 mph N/A   Partly Cloudy
4:51 PM 46.9 °F - 28.0 °F 48% 29.94 in 10.0 mi North 20.7 mph - N/A   Scattered Clouds
5:51 PM 43.0 °F 33.8 °F 27.0 °F 53% 29.97 in 10.0 mi NNW 23.0 mph 29.9 mph N/A   Clear
6:51 PM 39.0 °F 28.8 °F 25.0 °F 57% 30.01 in 10.0 mi NNW 21.9 mph 27.6 mph N/A   Partly Cloudy
7:51 PM 36.0 °F 24.4 °F 24.1 °F 62% 30.05 in 10.0 mi NNW 23.0 mph 28.8 mph N/A   Scattered Clouds
8:43 PM 33.1 °F 21.5 °F 23.0 °F 66% 30.02 in 10.0 mi North 19.6 mph 27.6 mph N/A   Mostly Cloudy
8:51 PM 33.1 °F 21.2 °F 21.9 °F 64% 30.08 in 10.0 mi NNW 20.7 mph 31.1 mph N/A   Mostly Cloudy
9:51 PM 30.0 °F 17.9 °F 21.0 °F 69% 30.12 in 10.0 mi NNW 18.4 mph 25.3 mph N/A   Overcast
10:51 PM 28.9 °F 15.8 °F 19.9 °F 69% 30.12 in 10.0 mi NNW 20.7 mph - N/A   Overcast
11:51 PM 27.0 °F 14.7 °F 18.0 °F 69% 30.14 in 10.0 mi NNW 16.1 mph 25.3 mph N/A   Overcast